This demonstration page uses our WeatherBlox Daily Observations layout. Learn more.

Left ArrowRight Arrow

40.92945, -100.16068

Hourly Observations for September 23, 2016

Temp ( °F °C ) Dew Point ( °F °C ) Humidity (%) Winds ( mph kmh ) Pressure ( in mb ) Visibility ( mi km ) Precip ( " mm )
12:15 am 00:15 Cloudy with Mist and Fog 64 17.6 62 16.7 95 95 E 6 9 29.85 1011 3 4 N/A
12:35 am 00:35 Cloudy with Mist and Fog 64 17.6 62 16.8 95 95 E 7 11 29.85 1011 1 2 N/A
12:55 am 00:55 Cloudy with Mist and Fog 64 17.6 62 16.8 95 95 E 5 7 29.85 1011 1 1 N/A
1:15 am 01:15 Cloudy with Mist and Fog 64 17.6 62 16.8 95 95 E 6 9 29.85 1011 1 2 N/A
1:35 am 01:35 Cloudy with Fog 64 17.6 62 16.8 95 95 E 5 7 29.85 1011 1 1 N/A
1:55 am 01:55 Cloudy with Fog 64 17.6 63 17 96 96 N N/A 29.85 1011 1 1 N/A
2:15 am 02:15 Cloudy with Fog 64 17.5 62 16.8 96 96 ESE 3 6 29.85 1011 0 0 N/A
2:35 am 02:35 Cloudy with Fog 64 17.5 62 16.7 95 95 ESE 3 6 29.85 1011 0 0 N/A
2:55 am 02:55 Cloudy with Fog 63 17.3 62 16.6 96 96 ESE 6 9 29.85 1011 1 1 N/A
3:15 am 03:15 Cloudy with Fog 63 17.2 62 16.5 96 96 ESE 5 7 29.83 1010 1 1 N/A
3:35 am 03:35 Cloudy with Mist and Fog 62 16.9 61 16.1 95 95 ESE 3 6 29.83 1010 1 2 N/A
3:55 am 03:55 Partly Cloudy with Mist and Fog 62 16.5 60 15.8 96 96 SE 3 6 29.83 1010 4 6 N/A
4:15 am 04:15 Clear 62 16.5 60 15.8 96 96 SE 5 7 29.83 1010 7 11 N/A
4:35 am 04:35 Clear 62 16.5 60 15.6 94 94 ESE 6 9 29.83 1010 10 16 N/A
4:55 am 04:55 Clear 63 17 60 15.4 90 90 ESE 7 11 29.83 1010 10 16 N/A
5:15 am 05:15 Clear 62 16.7 59 15 90 90 ESE 5 7 29.83 1010 10 16 N/A
5:35 am 05:35 Clear 62 16.5 59 14.8 90 90 SE 6 9 29.83 1010 10 16 N/A
5:55 am 05:55 Clear 64 17.9 60 15.5 86 86 SSE 10 17 29.83 1010 10 16 N/A
6:15 am 06:15 Clear 65 18.1 60 15.3 84 84 SSE 12 19 29.83 1010 10 16 N/A
6:35 am 06:35 Clear 65 18.2 60 15.3 83 83 SSE 12 19 29.83 1010 10 16 N/A
6:55 am 06:55 Clear 65 18.1 59 15.1 83 83 SSE 10 17 29.83 1010 10 16 N/A
7:15 am 07:15 Clear 65 18.2 59 15.1 82 82 SSE 12 19 29.83 1010 10 16 N/A
7:35 am 07:35 Sunny 65 18.3 59 15 81 81 SSE 12 19 29.83 1010 10 16 N/A
7:55 am 07:55 Sunny 65 18.5 59 15.1 81 81 SSE 12 19 29.85 1011 10 16 N/A
8:15 am 08:15 Sunny 66 19 59 15.2 79 79 SSE 12 19 29.83 1010 10 16 N/A
8:35 am 08:35 Sunny 67 19.6 60 15.5 77 77 SSE 12 19 29.83 1010 10 16 N/A
8:55 am 08:55 Sunny 69 20.3 60 15.5 74 74 SSE 13 20 29.83 1010 10 16 N/A
9:15 am 09:15 Sunny 69 20.7 60 15.6 73 73 SSE 13 20 29.83 1010 10 16 N/A
9:35 am 09:35 Sunny 72 22.1 60 15.7 67 67 S 15 24 29.83 1010 10 16 N/A
9:55 am 09:55 Sunny 74 23.3 60 15.6 62 62 S 18 30 29.80 1009 10 16 N/A
10:15 am 10:15 Sunny 75 24.1 60 15.5 59 59 S 15 24 29.80 1009 10 16 N/A
10:35 am 10:35 Sunny 78 25.3 60 15.6 55 55 S 20 31 29.80 1009 10 16 N/A
10:55 am 10:55 Sunny 79 26.1 60 15.4 52 52 S 20 31 29.77 1008 10 16 N/A
11:15 am 11:15 Sunny 81 27 59 15 48 48 S 18 30 29.77 1008 10 16 N/A
11:35 am 11:35 Sunny 82 27.8 58 14.6 44 44 S 20 31 29.77 1008 10 16 N/A
11:55 am 11:55 Sunny 84 28.7 58 14.6 42 42 S 22 35 29.77 1008 10 16 N/A
12:15 pm 12:15 Sunny 85 29.3 57 13.8 39 39 S 23 37 29.77 1008 10 16 N/A
12:35 pm 12:35 Sunny 86 30 56 13.6 37 37 S 23 37 29.71 1006 10 16 N/A
12:55 pm 12:55 Sunny 87 30.5 56 13.1 34 34 S 30 48 29.71 1006 10 16 N/A
1:15 pm 13:15 Sunny 87 30.7 55 12.5 33 33 S 23 37 29.71 1006 10 16 N/A
1:35 pm 13:35 Sunny 88 31.1 55 12.5 32 32 S 24 39 29.71 1006 10 16 N/A
1:55 pm 13:55 Sunny 88 31.1 53 11.8 31 31 S 28 44 29.68 1005 10 16 N/A
2:15 pm 14:15 Sunny 88 31.2 54 12.1 31 31 S 25 41 29.68 1005 10 16 N/A
2:35 pm 14:35 Sunny 89 31.5 53 11.9 30 30 S 28 44 29.68 1005 10 16 N/A
2:55 pm 14:55 Sunny 88 31.3 53 11.8 30 30 SSE 23 37 29.65 1004 10 16 N/A
3:15 pm 15:15 Sunny 89 31.5 53 11.5 29 29 SSE 26 43 29.65 1004 10 16 N/A
3:35 pm 15:35 Sunny 89 31.4 53 11.4 29 29 S 22 35 29.65 1004 10 16 N/A
3:55 pm 15:55 Sunny 89 31.6 53 11.8 30 30 SSE 25 41 29.65 1004 10 16 N/A
4:15 pm 16:15 Sunny 89 31.6 53 11.5 29 29 S 23 37 29.65 1004 10 16 N/A
4:35 pm 16:35 Sunny 88 31.3 52 11.3 29 29 S 25 41 29.65 1004 10 16 N/A
4:55 pm 16:55 Sunny 88 31.1 53 11.6 30 30 SSE 26 43 29.65 1004 10 16 N/A
5:15 pm 17:15 Sunny 87 30.6 53 11.5 31 31 SSE 26 43 29.62 1003 10 16 N/A
5:35 pm 17:35 Sunny 87 30.5 52 11.2 30 30 SSE 25 41 29.65 1004 10 16 N/A
5:55 pm 17:55 Sunny 86 30.2 52 11.1 31 31 SSE 23 37 29.65 1004 10 16 N/A
6:15 pm 18:15 Sunny 86 29.8 51 10.8 31 31 SSE 22 35 29.65 1004 10 16 N/A
6:35 pm 18:35 Sunny 84 29.1 52 11.3 33 33 SSE 20 31 29.65 1004 10 16 N/A
6:55 pm 18:55 Sunny 83 28.3 53 11.9 36 36 SSE 14 22 29.68 1005 10 16 N/A
7:15 pm 19:15 Sunny 82 27.5 54 12.2 39 39 SSE 13 20 29.68 1005 7 11 N/A
7:35 pm 19:35 Clear 80 26.6 55 12.5 42 42 SSE 13 20 29.68 1005 10 16 N/A
7:55 pm 19:55 Clear 79 26 55 12.8 44 44 SE 13 20 29.68 1005 10 16 N/A
8:15 pm 20:15 Clear 78 25.5 56 13.6 48 48 SE 13 20 29.68 1005 10 16 N/A
8:35 pm 20:35 Clear 77 25 57 14 51 51 SE 14 22 29.71 1006 10 16 N/A
8:55 pm 20:55 Clear 76 24.6 58 14.3 53 53 SE 14 22 29.71 1006 10 16 N/A
9:15 pm 21:15 Clear 76 24.2 59 15 57 57 SE 16 26 29.71 1006 10 16 N/A
9:35 pm 21:35 Clear 76 24.4 59 15.2 57 57 SE 16 26 29.71 1006 10 16 N/A
9:55 pm 21:55 Clear 75 23.9 60 15.3 59 59 SSE 17 28 29.71 1006 10 16 N/A
10:15 pm 22:15 Clear 74 23.5 59 15.2 60 60 SSE 14 22 29.74 1007 10 16 N/A
10:35 pm 22:35 Clear 74 23.2 59 15.1 60 60 SSE 14 22 29.71 1006 10 16 N/A
10:55 pm 22:55 Clear 74 23.4 59 14.9 59 59 SSE 15 24 29.74 1007 10 16 N/A
11:15 pm 23:15 Clear 74 23.2 59 14.8 59 59 SSE 15 24 29.74 1007 10 16 N/A
11:35 pm 23:35 Clear 73 22.6 59 15 62 62 SSE 14 22 29.74 1007 10 16 N/A
11:55 pm 23:55 Clear 72 22.4 59 15 63 63 SSE 14 22 29.74 1007 10 16 N/A

Powered by AerisWeather